Total_Precipitation_Accumulation
0.81 0.98 0.95 0.77 0.74 0.76 0.78 0.90 1.13 1.12 1.06 1.16 1.35 1.46 1.38 1.38 1.37 1.25 1.06 0.89 0.74 0.63 0.59 0.55 0.56 0.58 0.61 0.63 0.67 0.80 0.90 0.94 1.01 1.17 1.38 1.63 1.85 2.06
0.89 0.96 1.01 0.98 0.91 0.89 0.90 0.96 1.12 1.16 1.18 1.22 1.42 1.50 1.33 1.16 1.23 1.27 1.12 1.03 0.84 0.70 0.61 0.59 0.59 0.59 0.56 0.56 0.54 0.54 0.57 0.60 0.65 0.72 0.81 0.94 1.11 1.38
1.07 1.06 1.06 1.14 1.19 1.10 1.08 1.09 1.17 1.29 1.35 1.34 1.44 1.44 1.30 1.10 1.08 1.13 1.14 1.14 0.97 0.87 0.72 0.64 0.60 0.58 0.55 0.57 0.57 0.53 0.49 0.46 0.46 0.49 0.53 0.58 0.62 0.67
1.16 1.31 1.33 1.28 1.24 1.17 1.20 1.22 1.30 1.49 1.54 1.50 1.49 1.51 1.41 1.26 1.18 1.09 0.97 0.96 0.95 0.96 0.80 0.67 0.61 0.58 0.56 0.52 0.50 0.48 0.46 0.44 0.40 0.37 0.37 0.39 0.43 0.48
1.03 1.29 1.49 1.65 1.53 1.35 1.25 1.22 1.29 1.42 1.59 1.53 1.50 1.62 1.60 1.46 1.33 1.13 0.99 0.95 0.82 0.84 0.84 0.75 0.64 0.59 0.55 0.52 0.51 0.50 0.46 0.44 0.43 0.41 0.38 0.37 0.37 0.39
0.94 1.05 1.18 1.38 1.52 1.58 1.44 1.32 1.31 1.43 1.59 1.62 1.69 1.92 1.93 1.75 1.48 1.26 1.14 1.01 0.88 0.72 0.72 0.72 0.68 0.60 0.57 0.55 0.52 0.49 0.48 0.47 0.47 0.46 0.43 0.41 0.38 0.36
1.03 1.02 0.98 1.06 1.20 1.34 1.40 1.49 1.49 1.48 1.57 1.65 1.85 2.24 2.23 1.94 1.54 1.33 1.26 1.19 1.03 0.87 0.78 0.67 0.62 0.57 0.56 0.58 0.56 0.53 0.48 0.45 0.42 0.41 0.42 0.42 0.40 0.39
1.21 1.14 1.05 0.97 0.99 1.08 1.15 1.25 1.39 1.44 1.45 1.52 1.70 2.00 2.15 2.03 1.76 1.54 1.34 1.22 1.11 1.02 0.94 0.86 0.73 0.68 0.60 0.53 0.56 0.54 0.50 0.45 0.41 0.38 0.36 0.36 0.37 0.36
1.37 1.38 1.14 0.96 1.01 0.99 1.07 1.09 1.11 1.20 1.30 1.38 1.54 1.76 2.06 2.17 2.01 1.64 1.49 1.36 1.14 1.02 0.99 0.95 0.86 0.77 0.67 0.62 0.65 0.54 0.50 0.47 0.42 0.38 0.36 0.33 0.31 0.32
1.16 1.18 1.15 1.02 0.95 0.94 0.95 0.93 0.90 0.92 0.98 1.06 1.20 1.44 1.74 2.07 2.23 1.98 1.78 1.60 1.36 1.18 1.01 0.99 0.95 0.84 0.71 0.64 0.68 0.58 0.48 0.45 0.43 0.39 0.36 0.35 0.34 0.33
0.95 0.99 1.02 0.93 0.89 0.77 0.76 0.79 0.78 0.77 0.76 0.79 0.87 1.03 1.28 1.59 1.92 2.05 1.78 1.45 1.30 1.12 0.98 0.89 0.84 0.86 0.82 0.68 0.65 0.66 0.55 0.47 0.44 0.43 0.40 0.37 0.35 0.35
1.06 1.09 1.04 0.92 0.82 0.65 0.64 0.70 0.70 0.66 0.69 0.69 0.68 0.74 0.85 1.10 1.45 1.62 1.64 1.38 1.15 1.03 0.79 0.72 0.68 0.70 0.75 0.64 0.51 0.50 0.49 0.51 0.50 0.45 0.43 0.42 0.41 0.31
1.14 1.21 1.15 0.97 0.74 0.60 0.54 0.55 0.53 0.55 0.60 0.63 0.63 0.67 0.80 0.97 1.13 1.34 1.47 1.39 1.15 0.88 0.71 0.67 0.60 0.60 0.62 0.58 0.53 0.49 0.46 0.46 0.46 0.48 0.48 0.49 0.49 0.41
1.00 1.13 1.15 0.98 0.76 0.61 0.51 0.45 0.42 0.40 0.44 0.51 0.54 0.55 0.62 0.74 0.92 1.17 1.38 1.39 1.24 1.01 0.84 0.81 0.74 0.65 0.59 0.53 0.49 0.48 0.48 0.46 0.46 0.44 0.45 0.54 0.52 0.52
0.79 1.04 1.13 1.00 0.86 0.72 0.63 0.57 0.47 0.39 0.41 0.43 0.41 0.41 0.46 0.57 0.78 1.11 1.46 1.58 1.48 1.23 1.05 0.91 0.82 0.79 0.77 0.63 0.49 0.43 0.46 0.46 0.43 0.44 0.46 0.49 0.49 0.49
0.72 0.88 1.01 1.03 0.93 0.85 0.75 0.62 0.50 0.45 0.44 0.44 0.44 0.47 0.55 0.66 0.79 0.94 1.26 1.50 1.53 1.35 1.15 1.02 0.92 0.90 0.85 0.71 0.57 0.43 0.37 0.40 0.41 0.42 0.47 0.50 0.53 0.52
0.74 0.83 0.95 1.05 1.05 1.01 0.97 0.86 0.75 0.68 0.60 0.57 0.63 0.64 0.69 0.74 0.77 0.85 1.05 1.25 1.25 1.13 1.03 1.01 1.00 0.97 0.90 0.86 0.73 0.50 0.38 0.35 0.35 0.43 0.52 0.53 0.54 0.59
0.54 0.69 0.86 1.02 1.13 1.18 1.20 1.14 1.02 0.92 0.82 0.79 0.81 0.78 0.75 0.78 0.79 0.81 0.94 1.09 1.10 1.05 0.99 0.93 1.00 1.09 1.03 0.87 0.70 0.58 0.45 0.38 0.39 0.48 0.55 0.56 0.53 0.53
0.37 0.54 0.70 0.84 1.01 1.14 1.18 1.14 1.05 1.01 1.02 1.00 0.99 0.95 0.88 0.87 0.90 0.88 0.89 1.01 1.07 1.04 1.05 1.02 1.01 1.02 0.98 0.74 0.53 0.49 0.53 0.50 0.54 0.57 0.60 0.58 0.52 0.50
0.32 0.47 0.61 0.74 0.89 1.05 1.10 1.09 1.10 1.12 1.13 1.09 1.10 1.10 1.06 1.01 1.00 0.97 0.93 0.94 1.04 1.11 1.11 1.09 1.01 0.91 0.83 0.74 0.64 0.53 0.52 0.63 0.69 0.66 0.65 0.67 0.61 0.59
0.40 0.46 0.53 0.64 0.81 0.98 1.10 1.14 1.17 1.16 1.15 1.17 1.17 1.18 1.20 1.14 1.04 1.02 1.07 1.05 1.03 1.09 1.04 0.92 0.89 0.99 1.06 1.09 0.93 0.66 0.54 0.56 0.67 0.72 0.76 0.83 0.76 0.70
0.55 0.59 0.61 0.67 0.84 1.01 1.14 1.23 1.28 1.25 1.21 1.22 1.22 1.22 1.22 1.20 1.10 1.09 1.17 1.16 1.03 0.97 0.97 0.99 1.15 1.29 1.27 1.15 0.89 0.70 0.64 0.66 0.69 0.72 0.76 0.81 0.80 0.70
0.68 0.65 0.60 0.64 0.80 0.96 1.07 1.18 1.27 1.26 1.19 1.16 1.23 1.27 1.20 1.15 1.11 1.12 1.16 1.21 1.15 1.09 1.12 1.16 1.22 1.25 1.21 1.17 1.08 0.91 0.77 0.76 0.77 0.72 0.61 0.57 0.56 0.55